Weather reports worldwide

Advertisment
Aultbea, United Kingdom (3034): temperature & dewpoint: 13.02.2018 15:00:00 - 19.02.2018 15:00:00 (GMT)Aultbea, United Kingdom (3034): temperature -20cm & temperature -100cm: 13.02.2018 15:00:00 - 19.02.2018 15:00:00 (GMT)Aultbea, United Kingdom (3034): wind speed & gusts: 13.02.2018 15:00:00 - 19.02.2018 15:00:00 (GMT)Aultbea, United Kingdom (3034): wind direction: 13.02.2018 15:00:00 - 19.02.2018 15:00:00 (GMT)Aultbea, United Kingdom (3034): reduced air pressure: 13.02.2018 15:00:00 - 19.02.2018 15:00:00 (GMT)Aultbea, United Kingdom (3034): visibility: 13.02.2018 15:00:00 - 19.02.2018 15:00:00 (GMT)Aultbea, United Kingdom (3034): precipitation: 13.02.2018 15:00:00 - 19.02.2018 15:00:00 (GMT)
Date & Time tt [°C] td [°C] tt -20cm [°C] tt -100cm [°C] ff [km/h] ff [kn] fx [km/h] fx [kn] dd ppp [hPa] vv [km] rr [mm]
19.02.2018 15:00:00 9,7 8,0 - - 18 10 - - SSW 1015,3 20 0,0
19.02.2018 14:00:00 10,3 8,8 - - 24 13 - - S 1015,1 19 0,0
19.02.2018 13:00:00 9,7 8,9 - - 18 10 - - S 1015,3 12 0,0
19.02.2018 12:00:00 9,3 8,9 - - 16 9 - - SSW 1015,4 8 0,0
19.02.2018 11:00:00 8,8 8,5 - - 16 9 - - SSW 1014,9 7 0,0
19.02.2018 10:00:00 8,9 8,6 - - 9 5 - - S 1014,7 5 0,0
19.02.2018 09:00:00 8,9 8,6 4,5 4,7 18 10 - - SSW 1014,3 5 0,0
19.02.2018 08:00:00 8,6 8,4 - - 13 7 - - SSW 1013,8 2,2 0,4
19.02.2018 07:00:00 8,4 8,1 - - 5 3 - - S 1013,1 4,1 0,4
19.02.2018 06:00:00 8,4 8,0 - - 9 5 - - S 1012,6 3,3 0,4
19.02.2018 05:00:00 8,5 8,2 - - 11 6 - - S 1012,4 5 0,2
19.02.2018 04:00:00 8,5 8,1 - - 16 9 - - S 1011,9 5 0,0
19.02.2018 03:00:00 8,3 8,0 - - 18 10 - - S 1011,7 6 0,2
19.02.2018 02:00:00 6,2 5,9 - - 11 6 - - SE 1011,5 5 0,0
19.02.2018 01:00:00 6,0 5,7 - - 11 6 - - SSE 1011,3 9 0,2
19.02.2018 00:00:00 5,8 5,3 - - 13 7 - - SSE 1011,3 9 0,2
18.02.2018 23:00:00 5,6 5,1 - - 13 7 - - SSE 1011,3 9 0,6
18.02.2018 22:00:00 5,4 4,7 - - 15 8 - - SSE 1011,4 8 0,4
18.02.2018 21:00:00 5,3 4,4 - - 8 4 - - SE 1011,6 30 0,2
18.02.2018 20:00:00 5,1 4,2 - - 5 3 - - E 1011,8 17 0,2
18.02.2018 19:00:00 4,9 3,9 - - 5 3 - - SE 1011,9 27 0,6
18.02.2018 18:00:00 5,0 3,8 - - 4 2 - - ESE 1012,2 14 0,8
18.02.2018 17:00:00 5,5 3,6 - - 8 4 - - SE 1012,6 18 0,8
18.02.2018 16:00:00 6,0 3,8 - - 8 4 - - SE 1012,9 15 0,4
18.02.2018 15:00:00 7,2 2,3 - - 11 6 - - SSE 1013,4 45 0,0
18.02.2018 14:00:00 7,7 2,6 - - 13 7 - - SSE 1013,9 50 0,0
18.02.2018 13:00:00 7,4 2,5 - - 15 8 - - SSE 1014,8 50 0,0
18.02.2018 12:00:00 7,0 3,0 - - 13 7 - - SSE 1015,1 50 0,0
18.02.2018 11:00:00 6,3 3,1 - - 11 6 - - SE 1015,1 40 0,0
18.02.2018 10:00:00 4,8 2,5 - - 8 4 - - ESE 1015,2 40 0,0
18.02.2018 09:00:00 4,8 2,8 3,7 4,7 8 4 - - SSE 1015,2 50 0,0
18.02.2018 08:00:00 3,8 2,1 - - 8 4 - - SSE 1015,8 45 0,0
18.02.2018 07:00:00 3,6 2,2 - - 11 6 - - SSE 1015,9 50 0,0
18.02.2018 06:00:00 3,6 2,1 - - 11 6 - - SSE 1016,3 50 0,0
18.02.2018 05:00:00 3,3 1,9 - - 13 7 - - SE 1016,5 50 0,0
18.02.2018 04:00:00 3,2 2,0 - - 13 7 - - SE 1016,5 50 0,0
18.02.2018 03:00:00 2,9 1,4 - - 9 5 - - SE 1016,7 50 0,0
18.02.2018 02:00:00 2,9 1,7 - - 11 6 - - SSE 1016,7 45 0,0
18.02.2018 01:00:00 2,3 1,0 - - 8 4 - - SSE 1016,5 50 0,0
18.02.2018 00:00:00 3,2 1,5 - - 9 5 - - S 1016,6 45 0,0
17.02.2018 23:00:00 4,1 1,9 - - 15 8 - - S 1016,4 40 0,0
17.02.2018 22:00:00 4,6 1,7 - - 16 9 - - SW 1016,3 45 0,0
17.02.2018 21:00:00 4,3 2,4 - - 15 8 - - SSW 1015,7 45 0,0
17.02.2018 20:00:00 4,5 2,4 - - 15 8 - - SW 1015,5 40 0,0
17.02.2018 19:00:00 3,9 2,4 - - 11 6 - - SW 1015,4 30 0,0
17.02.2018 18:00:00 4,0 1,2 - - 9 5 - - W 1014,9 45 0,0
17.02.2018 17:00:00 4,8 1,8 - - 18 10 - - W 1014,2 35 0,0
17.02.2018 16:00:00 5,5 3,0 - - 16 9 - - SW 1013,5 30 0,0
17.02.2018 15:00:00 5,6 2,3 - - 24 13 - - SW 1013,0 40 0,0
17.02.2018 14:00:00 5,3 2,7 - - 29 16 46 25 SSW 1012,7 35 0,2
17.02.2018 13:00:00 5,7 2,9 - - 24 13 - - SW 1012,4 30 1,8
17.02.2018 12:00:00 6,8 3,2 - - 28 15 - - SSW 1012,2 26 0,0
17.02.2018 11:00:00 5,8 3,9 - - 21 11 - - SW 1011,8 35 0,6
17.02.2018 10:00:00 5,2 2,9 - - 28 15 - - S 1011,3 35 0,0
17.02.2018 09:00:00 4,6 2,9 3,9 4,7 26 14 - - SSW 1011,1 40 0,0
17.02.2018 08:00:00 4,6 2,7 - - 29 16 46 25 S 1010,4 35 0,4
17.02.2018 07:00:00 5,0 3,1 - - 31 17 - - SSW 1010,1 20 0,2
17.02.2018 06:00:00 4,8 2,8 - - 29 16 - - S 1009,6 45 0,0
17.02.2018 05:00:00 4,5 3,0 - - 24 13 54 29 S 1009,7 35 0,4
17.02.2018 04:00:00 5,0 3,1 - - 26 14 50 27 S 1009,3 40 0,4
17.02.2018 03:00:00 5,7 3,1 - - 29 16 - - SSW 1009,4 20 0,0
17.02.2018 02:00:00 5,3 3,3 - - 26 14 50 27 S 1009,3 30 0,2
17.02.2018 01:00:00 5,8 4,2 - - 34 18 48 26 SSW 1009,2 30 0,6
17.02.2018 00:00:00 6,2 4,4 - - 34 18 52 28 SSW 1009,0 23 1,6
16.02.2018 23:00:00 5,6 3,8 - - 44 24 68 37 S 1008,9 11 1,0
16.02.2018 22:00:00 5,7 3,7 - - 48 26 76 41 S 1008,2 16 0,0
16.02.2018 21:00:00 6,0 2,9 - - 39 21 54 29 S 1008,0 21 0,0
16.02.2018 20:00:00 6,0 2,5 - - 34 18 50 27 S 1008,3 45 0,2
16.02.2018 19:00:00 5,8 2,1 - - 28 15 52 28 S 1008,8 45 0,0
16.02.2018 18:00:00 5,1 2,6 - - 26 14 - - S 1009,8 45 0,6
16.02.2018 17:00:00 5,0 2,2 - - 31 17 50 27 S 1010,7 12 0,2
16.02.2018 16:00:00 5,4 2,0 - - 16 9 - - S 1010,9 40 0,0
16.02.2018 15:00:00 3,9 2,5 - - 13 7 52 28 S 1011,9 29 1,0
16.02.2018 14:00:00 4,7 2,2 - - 39 21 54 29 S 1012,5 27 0,0
16.02.2018 13:00:00 5,7 2,3 - - 29 16 48 26 S 1012,1 35 0,0
16.02.2018 12:00:00 5,2 2,9 - - 34 18 52 28 SSW 1012,3 30 0,0
16.02.2018 11:00:00 6,0 2,5 - - 35 19 46 25 SSW 1011,8 26 0,0
16.02.2018 10:00:00 5,1 2,4 - - 26 14 - - S 1011,6 35 0,0
16.02.2018 09:00:00 4,4 1,9 3,7 4,7 35 19 46 25 SSW 1011,1 30 0,0
16.02.2018 08:00:00 3,6 1,6 - - 28 15 46 25 SSW 1010,2 35 0,0
16.02.2018 07:00:00 3,7 1,5 - - 35 19 46 25 SSW 1009,4 40 0,0
16.02.2018 06:00:00 3,6 1,7 - - 35 19 52 28 SSW 1008,9 35 0,0
16.02.2018 05:00:00 3,9 2,1 - - 31 17 - - SSW 1008,1 24 0,0
16.02.2018 04:00:00 3,6 1,6 - - 37 20 48 26 SSW 1007,5 28 0,2
16.02.2018 03:00:00 2,8 0,6 - - 29 16 54 29 SW 1007,3 30 0,0
16.02.2018 02:00:00 4,1 1,2 - - 26 14 - - SW 1006,2 21 0,0
16.02.2018 01:00:00 3,3 0,8 - - 22 12 50 27 WSW 1005,4 30 0,2
16.02.2018 00:00:00 4,0 1,1 - - 26 14 - - WSW 1004,4 17 0,6
15.02.2018 23:00:00 4,0 2,2 - - 29 16 52 28 SSW 1003,2 12 0,2
15.02.2018 22:00:00 4,9 1,3 - - 35 19 57 31 SW 1002,0 19 0,0
15.02.2018 21:00:00 5,6 2,2 - - 24 13 46 25 SW 1000,6 14 0,0
15.02.2018 20:00:00 5,6 2,1 - - 24 13 61 33 WSW 999,3 14 0,2
15.02.2018 19:00:00 6,0 2,9 - - 31 17 50 27 WSW 997,8 11 0,0
15.02.2018 18:00:00 6,1 2,6 - - 29 16 46 25 SW 996,4 11 0,0
15.02.2018 17:00:00 5,1 2,9 - - 31 17 48 26 SSW 995,1 18 0,6
15.02.2018 16:00:00 5,2 2,7 - - 29 16 54 29 SW 993,8 5 0,8
15.02.2018 15:00:00 5,8 3,2 - - 37 20 61 33 SSW 992,0 22 0,2
15.02.2018 14:00:00 5,4 3,7 - - 26 14 55 30 SW 990,8 12 0,6
15.02.2018 13:00:00 5,4 3,4 - - 44 24 63 34 SSW 989,6 21 0,8
15.02.2018 12:00:00 4,8 3,2 - - 41 22 65 35 SSW 988,3 5 0,6
15.02.2018 11:00:00 4,7 2,6 - - 50 27 70 38 SSW 987,6 9 0,0
15.02.2018 10:00:00 3,9 2,5 - - 48 26 72 39 SSW 986,5 9 1,2
15.02.2018 09:00:00 3,5 1,9 3,5 4,7 48 26 72 39 SSW 986,1 11 1,4
15.02.2018 08:00:00 4,6 1,3 - - 41 22 61 33 S 984,6 15 0,0
15.02.2018 07:00:00 3,0 1,5 - - 46 25 76 41 S 984,4 21 0,4
15.02.2018 06:00:00 3,7 1,8 - - 39 21 65 35 S 984,4 19 2,4
15.02.2018 05:00:00 3,1 1,4 - - 50 27 70 38 SSW 984,3 2,2 0,4
15.02.2018 04:00:00 3,3 1,4 - - 50 27 67 36 SSW 983,4 9 1,8
15.02.2018 03:00:00 3,3 1,3 - - 42 23 65 35 S 982,7 2,7 0,4
15.02.2018 02:00:00 3,0 1,2 - - 46 25 78 42 S 982,7 50 0,2
15.02.2018 01:00:00 4,9 0,8 - - 48 26 80 43 S 982,0 20 0,0
15.02.2018 00:00:00 4,8 1,0 - - 44 24 70 38 S 981,9 30 0,0
14.02.2018 23:00:00 5,0 0,3 - - 46 25 67 36 S 981,7 24 0,0
14.02.2018 22:00:00 4,2 0,9 - - 48 26 72 39 S 981,4 28 0,0
14.02.2018 21:00:00 3,8 1,1 - - 52 28 76 41 SSW 981,6 13 0,8
14.02.2018 20:00:00 5,7 1,3 - - 41 22 61 33 S 981,0 15 0,0
14.02.2018 19:00:00 5,8 2,9 - - 46 25 63 34 S 980,6 14 0,0
14.02.2018 18:00:00 5,4 2,8 - - 39 21 70 38 S 980,2 20 0,6
14.02.2018 17:00:00 6,6 2,7 - - 39 21 63 34 S 979,6 17 0,0
14.02.2018 16:00:00 6,7 2,7 - - 48 26 68 37 S 979,6 26 0,8
14.02.2018 15:00:00 6,7 2,9 - - 54 29 81 44 S 979,9 9 0,0
14.02.2018 14:00:00 7,0 3,2 - - 42 23 74 40 S 978,8 22 0,6
14.02.2018 13:00:00 5,9 3,4 - - 46 25 78 42 SSW 979,9 10 0,2
14.02.2018 12:00:00 6,3 2,6 - - 44 24 72 39 S 978,8 19 0,0
14.02.2018 11:00:00 5,5 2,5 - - 34 18 52 28 SSE 979,7 40 0,2
14.02.2018 10:00:00 5,0 2,1 - - 39 21 57 31 SSE 980,3 45 -
14.02.2018 09:00:00 5,7 0,1 3,2 4,7 39 21 55 30 S 981,7 40 0,0
14.02.2018 08:00:00 5,1 -1,1 - - 34 18 54 29 SSE 982,9 45 0,0
14.02.2018 07:00:00 4,4 -2,8 - - 28 15 50 27 ESE 984,7 50 0,0
14.02.2018 06:00:00 3,9 -2,7 - - 29 16 50 27 SE 986,5 45 0,0
14.02.2018 05:00:00 4,1 -2,8 - - 34 18 46 25 SSE 988,2 50 0,0
14.02.2018 04:00:00 4,0 -2,6 - - 28 15 55 30 SSE 990,3 45 0,0
14.02.2018 03:00:00 4,2 -2,6 - - 35 19 59 32 S 991,8 45 0,0
14.02.2018 02:00:00 4,0 -2,1 - - 39 21 61 33 S 993,2 40 0,0
14.02.2018 01:00:00 4,0 -0,5 - - 37 20 57 31 S 994,0 30 0,0
14.02.2018 00:00:00 3,4 0,8 - - 35 19 61 33 S 995,0 45 0,0
13.02.2018 23:00:00 3,4 0,3 - - 31 17 52 28 S 995,2 40 0,0
13.02.2018 22:00:00 3,4 0,4 - - 29 16 - - S 995,3 50 0,0
13.02.2018 21:00:00 3,3 -0,1 - - 34 18 46 25 S 995,4 40 0,0
13.02.2018 20:00:00 2,6 0,9 - - 34 18 50 27 S 995,4 19 0,0
13.02.2018 19:00:00 2,8 0,8 - - 34 18 48 26 SSW 995,3 40 0,0
13.02.2018 18:00:00 3,2 -0,2 - - 37 20 54 29 SSW 994,7 40 0,0
13.02.2018 17:00:00 3,2 0,9 - - 24 13 54 29 SW 994,0 30 0,0
13.02.2018 16:00:00 3,0 -0,2 - - 29 16 - - S 993,6 45 0,0
13.02.2018 15:00:00 3,9 -0,8 - - 31 17 - - SSW 993,0 40 0,0

tt = temperature
td = dewpoint
tt -20cm = temperature -20cm
tt -100cm = temperature -100cm
ff = wind speed
fx = gusts
dd = wind direction
ppp = reduced air pressure
vv = visibility
rr = precipitation

Next stations